TimeEDT,TemperatureF,Dew PointF,Humidity,Sea Level PressureIn,VisibilityMPH,Wind Direction,Wind SpeedMPH,Gust SpeedMPH,PrecipitationIn,Events,Conditions,WindDirDegrees,DateUTC
12:15 AM,48.2,37.4,66,29.96,10.0,SW,9.2,-,N/A,,Clear,220,2013-10-19 04:15:00
12:35 AM,48.2,37.4,66,29.96,10.0,SW,9.2,-,N/A,,Clear,220,2013-10-19 04:35:00
12:55 AM,48.2,37.4,66,29.95,10.0,SW,9.2,-,N/A,,Clear,220,2013-10-19 04:55:00
1:15 AM,48.2,37.4,66,29.95,10.0,SSW,9.2,-,N/A,,Clear,210,2013-10-19 05:15:00
1:35 AM,48.2,37.4,66,29.95,10.0,SSW,6.9,-,N/A,,Clear,210,2013-10-19 05:35:00
1:55 AM,48.2,37.4,66,29.95,10.0,SW,8.1,-,N/A,,Clear,220,2013-10-19 05:55:00
2:15 AM,48.2,37.4,66,29.95,10.0,SSW,6.9,-,N/A,,Clear,210,2013-10-19 06:15:00
2:35 AM,46.4,35.6,66,29.95,10.0,SSW,5.8,-,N/A,,Clear,210,2013-10-19 06:35:00
2:55 AM,46.4,35.6,66,29.94,10.0,SSW,5.8,-,N/A,,Clear,200,2013-10-19 06:55:00
3:15 AM,44.6,37.4,76,29.94,10.0,SSW,6.9,-,N/A,,Clear,200,2013-10-19 07:15:00
3:35 AM,44.6,35.6,71,29.93,10.0,SSW,8.1,-,N/A,,Clear,210,2013-10-19 07:35:00
3:55 AM,44.6,37.4,76,29.93,10.0,SSW,8.1,-,N/A,,Clear,200,2013-10-19 07:55:00
4:15 AM,44.6,37.4,76,29.92,10.0,South,6.9,-,N/A,,Clear,180,2013-10-19 08:15:00
4:35 AM,44.6,37.4,76,29.92,10.0,South,6.9,-,N/A,,Clear,180,2013-10-19 08:35:00
4:55 AM,44.6,37.4,76,29.92,10.0,South,6.9,-,N/A,,Clear,190,2013-10-19 08:55:00
5:15 AM,44.6,35.6,71,29.91,10.0,SSW,5.8,-,N/A,,Clear,210,2013-10-19 09:15:00
5:35 AM,44.6,35.6,71,29.91,10.0,SSW,5.8,-,N/A,,Clear,200,2013-10-19 09:35:00
5:55 AM,44.6,35.6,71,29.91,10.0,SW,3.5,-,N/A,,Clear,220,2013-10-19 09:55:00
6:15 AM,42.8,37.4,81,29.90,10.0,South,5.8,-,N/A,,Clear,170,2013-10-19 10:15:00
6:35 AM,42.8,37.4,81,29.90,10.0,SSE,6.9,-,N/A,,Clear,160,2013-10-19 10:35:00
6:55 AM,42.8,37.4,81,29.89,10.0,South,8.1,-,N/A,,Clear,180,2013-10-19 10:55:00
7:15 AM,42.8,37.4,81,29.89,10.0,South,8.1,-,N/A,,Clear,170,2013-10-19 11:15:00
7:35 AM,42.8,37.4,81,29.88,10.0,South,8.1,-,N/A,,Clear,170,2013-10-19 11:35:00
7:55 AM,44.6,37.4,76,29.88,10.0,South,6.9,-,N/A,,Clear,180,2013-10-19 11:55:00
8:15 AM,44.6,37.4,76,29.88,10.0,South,8.1,-,N/A,,Clear,180,2013-10-19 12:15:00
8:35 AM,44.6,37.4,76,29.88,10.0,South,8.1,-,N/A,,Scattered Clouds,180,2013-10-19 12:35:00
8:55 AM,44.6,37.4,76,29.88,10.0,South,8.1,-,N/A,,Mostly Cloudy,180,2013-10-19 12:55:00
9:15 AM,46.4,37.4,71,29.87,10.0,South,9.2,-,N/A,,Scattered Clouds,170,2013-10-19 13:15:00
9:35 AM,46.4,39.2,76,29.87,10.0,South,8.1,-,N/A,,Mostly Cloudy,180,2013-10-19 13:35:00
9:55 AM,48.2,39.2,71,29.86,10.0,South,9.2,-,N/A,,Overcast,170,2013-10-19 13:55:00
10:15 AM,48.2,39.2,71,29.85,10.0,SSE,10.4,-,N/A,,Overcast,150,2013-10-19 14:15:00
10:35 AM,48.2,39.2,71,29.84,10.0,SSE,10.4,-,N/A,,Overcast,160,2013-10-19 14:35:00
10:55 AM,48.2,41.0,76,29.84,10.0,SSE,10.4,-,N/A,,Overcast,160,2013-10-19 14:55:00
11:15 AM,48.2,39.2,71,29.84,10.0,SSE,11.5,-,N/A,,Overcast,160,2013-10-19 15:15:00
11:35 AM,50.0,41.0,71,29.82,10.0,South,11.5,-,N/A,,Overcast,170,2013-10-19 15:35:00
11:55 AM,51.8,41.0,67,29.82,10.0,SSE,10.4,-,N/A,,Overcast,160,2013-10-19 15:55:00
12:15 PM,53.6,42.8,67,29.82,10.0,South,12.7,-,N/A,,Mostly Cloudy,170,2013-10-19 16:15:00
12:35 PM,53.6,41.0,62,29.80,10.0,SSE,12.7,-,N/A,,Scattered Clouds,160,2013-10-19 16:35:00
12:55 PM,53.6,41.0,62,29.79,10.0,South,11.5,17.3,N/A,,Partly Cloudy,170,2013-10-19 16:55:00
1:15 PM,53.6,39.2,58,29.78,10.0,South,13.8,-,N/A,,Partly Cloudy,170,2013-10-19 17:15:00
1:35 PM,53.6,41.0,62,29.77,10.0,South,15.0,18.4,N/A,,Scattered Clouds,190,2013-10-19 17:35:00
1:55 PM,53.6,41.0,62,29.76,10.0,South,16.1,-,N/A,,Mostly Cloudy,170,2013-10-19 17:55:00
2:15 PM,53.6,41.0,62,29.75,10.0,South,15.0,23.0,N/A,,Overcast,190,2013-10-19 18:15:00
2:35 PM,53.6,41.0,62,29.74,10.0,SSW,15.0,-,N/A,,Mostly Cloudy,210,2013-10-19 18:35:00
2:55 PM,53.6,39.2,58,29.74,10.0,SSW,16.1,-,N/A,,Overcast,200,2013-10-19 18:55:00
3:15 PM,51.8,42.8,71,29.73,10.0,South,12.7,-,N/A,,Overcast,180,2013-10-19 19:15:00
3:35 PM,51.8,42.8,71,29.73,10.0,South,16.1,-,N/A,,Overcast,190,2013-10-19 19:35:00
3:55 PM,51.8,42.8,71,29.73,10.0,South,13.8,18.4,N/A,,Mostly Cloudy,180,2013-10-19 19:55:00
4:15 PM,48.2,42.8,82,29.73,10.0,South,12.7,-,N/A,,Overcast,180,2013-10-19 20:15:00
4:35 PM,48.2,42.8,82,29.72,7.0,South,11.5,-,0.02,,Overcast,180,2013-10-19 20:35:00
4:55 PM,48.2,44.6,87,29.72,10.0,South,12.7,-,0.03,,Overcast,170,2013-10-19 20:55:00
5:15 PM,48.2,42.8,82,29.71,10.0,South,13.8,19.6,N/A,,Overcast,190,2013-10-19 21:15:00
5:35 PM,48.2,44.6,87,29.71,7.0,SW,8.1,-,0.02,,Overcast,220,2013-10-19 21:35:00
5:55 PM,46.4,42.8,87,29.75,9.0,WSW,13.8,23.0,0.05,,Overcast,250,2013-10-19 21:55:00
6:15 PM,44.6,39.2,81,29.77,10.0,WSW,10.4,24.2,N/A,,Overcast,250,2013-10-19 22:15:00
6:55 PM,42.8,37.4,81,29.78,10.0,West,12.7,19.6,N/A,,Unknown,260,2013-10-19 22:55:00
7:15 PM,42.8,37.4,81,29.80,10.0,WSW,12.7,17.3,N/A,,Overcast,250,2013-10-19 23:15:00
7:35 PM,42.8,37.4,81,29.81,10.0,West,11.5,20.7,N/A,,Overcast,260,2013-10-19 23:35:00
7:55 PM,42.8,37.4,81,29.82,10.0,WSW,6.9,-,N/A,,Overcast,250,2013-10-19 23:55:00
8:15 PM,42.8,37.4,81,29.83,10.0,WSW,9.2,-,N/A,,Overcast,240,2013-10-20 00:15:00
8:35 PM,42.8,37.4,81,29.84,10.0,WSW,13.8,17.3,N/A,,Overcast,240,2013-10-20 00:35:00
8:55 PM,42.8,35.6,76,29.85,10.0,WSW,11.5,-,N/A,,Overcast,250,2013-10-20 00:55:00
9:15 PM,41.0,35.6,81,29.85,10.0,SW,11.5,-,N/A,,Overcast,230,2013-10-20 01:15:00
9:35 PM,41.0,35.6,81,29.86,10.0,SW,12.7,19.6,N/A,,Overcast,230,2013-10-20 01:35:00
9:55 PM,41.0,35.6,81,29.87,10.0,WSW,10.4,-,N/A,,Overcast,250,2013-10-20 01:55:00
10:15 PM,41.0,35.6,81,29.88,10.0,WSW,12.7,17.3,N/A,,Overcast,240,2013-10-20 02:15:00
10:35 PM,41.0,35.6,81,29.88,10.0,SW,10.4,-,N/A,,Overcast,230,2013-10-20 02:35:00
10:55 PM,41.0,35.6,81,29.89,10.0,WSW,9.2,16.1,N/A,,Overcast,250,2013-10-20 02:55:00
11:15 PM,41.0,35.6,81,29.89,10.0,WSW,8.1,16.1,N/A,,Overcast,240,2013-10-20 03:15:00
11:35 PM,41.0,35.6,81,29.90,10.0,SW,10.4,-,N/A,,Overcast,230,2013-10-20 03:35:00
11:55 PM,41.0,35.6,81,29.90,10.0,SW,13.8,18.4,N/A,,Overcast,230,2013-10-20 03:55:00